Regional Weather Roundup
Issued by NWS

Home | Current Version | Previous Version | Text Only | Print | Product List | Glossary Off
Versions: 1 2 3 4 5 6 7 8 9 10 11 12 13 14 15 16 17 18 19 20 21 22 23 24 25 26 27 28 29 30 31 32 33 34 35 36 37 38 39 40 41 42 43 44 45 46 47 48 49 50

000
ASUS43 KFSD 161610
RWRSD

WEATHER ROUNDUP FOR SOUTH DAKOTA
NATIONAL WEATHER SERVICE SIOUX FALLS SD
1000 AM CST SAT DEC 16 2017

NOTE: "FAIR" INDICATES FEW OR NO CLOUDS BELOW 12,000 FEET WITH NO
SIGNIFICANT WEATHER AND/OR OBSTRUCTIONS TO VISIBILITY.


SDZ001>005-009-010-012>017-161700-
NORTHWEST AND NORTH CENTRAL SOUTH DAKOTA

CITY           SKY/WX    TMP DP  RH WIND       PRES   REMARKS
BUFFALO          N/A     31  27  85 NW15      29.86R WCI  20
FAITH            N/A     34  30  85 NW14      29.90R WCI  25
MOBRIDGE       MOSUNNY   36  31  82 N3        29.86R
$$

SDZ012>016-024>037-041>051-057-063-072>074-161700-
SOUTHWEST AND SOUTH CENTRAL SOUTH DAKOTA

CITY           SKY/WX    TMP DP  RH WIND       PRES   REMARKS
RAPID CTY ARPT LGT SNOW  34  31  88 N12       29.93R FOG     WCI  25
PIERRE         CLOUDY    39  32  76 NW14      29.90R
CUSTER         LGT SNOW  32  22  66 CALM      29.87R
ELLSWORTH AFB  FLURRIES  33  33 100 N10       29.93  WCI  25
PHILIP         CLOUDY    36  31  82 W8        29.93R
PINE RIDGE     CLOUDY    36  29  75 N14       29.91R
SPEARFISH      PTSUNNY   32  30  93 NW9G15    29.93R WCI  24
WINNER         FAIR      36  28  73 NW3       29.90R
$$

SDZ004>011-016>023-039-040-161700-
NORTHEAST SOUTH DAKOTA

CITY           SKY/WX    TMP DP  RH WIND       PRES   REMARKS
ABERDEEN       PTSUNNY   38  35  89 NW9       29.86R
WATERTOWN      CLOUDY    35  33  92 NW10      29.83R WCI  27
BROOKINGS      CLOUDY    33  28  81 NW6       29.83R WCI  28
SISSETON         N/A     36  31  82 NW9       29.84R
$$

SDZ017-020-022-023-036>040-048>070-161700-
SOUTHEAST SOUTH DAKOTA

CITY           SKY/WX    TMP DP  RH WIND       PRES   REMARKS
SIOUX FALLS    CLOUDY    37  29  72 N6        29.83R
HURON          CLOUDY    38  31  76 N10       29.87R
CHAMBERLAIN    MOSUNNY   37  30  75 NW8       29.89R
MITCHELL       CLOUDY    36  29  75 N8        29.87R
YANKTON        CLOUDY    36  26  67 NW10      29.87R
$$

ABBREVIATIONS USED IN REMARKS
   TC - TEMPERATURE IN CELSIUS
  WCI - WIND CHILL INDEX
   HX - HEAT INDEX
  VSB - VISIBILITY





USA.gov is the U.S. government's official web portal to all federal, state and local government web resources and services.